Карточка аэропорта UWGG

Внимание!
Информация на этой странице в стадии наполнения.
Если вы не увидели какой-то информации, или заметили неточность - пожалуйста сообщите нам!
Спасибо!
Команда XR-STAFF
Название аэропортаСтригино
Название аэропорта (англ.)Strigino
Превышение256 ft. (78 m.)
Координаты56°13.8', 43°47.202'
Высота перехода900 m
Эшелон переходаBy ATC
Коды ответчика2120-2147
Зона ОрВДМосква РПИ (UUWV)
Данные METARUWGG 171830Z 33002MPS 9999 SCT033 09/09 Q1001 R36R/090070 NOSIG
Проноз погоды (TAF)UWGG 171650Z 1718/1818 03003MPS 8000 BKN030CB TX12/1812Z TN06/1803Z
NOTAMshow/hide NOTAM
AWOS   TABLE

Информация о ВПП

ВПП Длина ВПП (м.) Покрытие Курс ВПП Частота ILS
18L3000Цементобетон179108.1
36R3000Цементобетон359110.5
18R2806Асфальтобетон179109.9
36L2806Асфальтобетон359109.5

Диспетчерские позиции

Позывной Наименование органа УВД Частота
UWGG_APPНижний-Подход124.700
UWGG_GNDНижний-Руление121.800
UWGG_R_APPНижний-Круг120.800
UWGG_TWRНижний-Вышка120.400



Спутниковое изображение